[ hide orbit diagram ]
For accurate long-term ephemerides, please instead use our Horizons system.This orbit viewer was implemented using two-body methods, and hence should not be used for determining accurate long-term trajectories (over several years or decades) or planetary encounter circumstances.
Orbital Elements at Epoch 2459200.5 (2020-Dec-17.0) TDB
Reference: JPL 7 (heliocentric ecliptic J2000)
Element | Value | Uncertainty (1-sigma) | Units |
e | .03221706239179922 | 0.00017822 | |
a | 42.58846210427789 | 0.011341 | au |
q | 41.21638696349359 | 0.018208 | au |
i | 1.485500050713453 | 0.00027273 | deg |
node | 72.34811966131375 | 0.0018207 | deg |
peri | 123.786859505144 | 0.26364 | deg |
M | 262.1368224688162 | 0.25068 | deg |
tp | 2486796.947290196284 (2096-Jul-07.44729020) | 60.262 | TDB |
period | 101516.4362643446 277.94 | 40.548 0.111 | d yr |
n | .003546223776636276 | 1.4164e-06 | deg/d |
Q | 43.96053724506218 | 0.011706 | au |
|
| | Orbit Determination Parameters
Additional Information
|
[ show covariance matrix ]
Physical Parameter Table
Parameter |
Symbol |
Value |
Units |
Sigma |
Reference |
Notes |
absolute magnitude |
H |
7.0 |
|
n/a |
PDS3 (MPO 6493) |
|
rotation period |
rot_per |
4.7 |
h |
n/a |
LCDB (Rev. 2020-October); Warner et al., 2009 |
Result based on less than full coverage, so that the period may be wrong by 30 percent or so. Published Reference List: [Romanishin, W.; Tegler, S.C. (1999) Nature 398, 129-132.] |
|
19255 (1994 VK8) Discovered 1994-Nov-08 by Fitzsimmons, A., O'Ceallaigh, D., Williams, I. P. at La Palma |
Reference: 20001211/Numbers.arc | Last Updated: 2004-04-19 |
|
|